Location: Lake Almanor
(40.2485°N, 121.1442°W)
Time: 07:26:59
(UTC-08:00)

STARLINK-1076 - Pass Details

Date: 31 January 2020
Orbit: 348 x 351 km, 53.0° (Epoch: 18 February)

Event Time Altitude Azimuth Distance (km) Brightness Sun altitude
Rises 19:46:15 0° 295° (WNW) 2,162 7.6 -27.7°
Reaches altitude 10° 19:48:38 10° 276° (W) 1,316 6.5 -28.2°
Enters shadow 19:49:07 13° 269° (W) 1,175 6.2 -28.3°
